Regional Weather Roundup
Issued by NWS Kansas City/Pleasant Hill, MO

Home | Current Version | Previous Version | Graphics & Text | Print | Product List | Glossary Off
Versions: 1 2 3 4 5 6 7 8 9 10 11 12 13 14 15 16 17 18 19 20 21 22 23 24 25 26 27

000
ASUS43 KEAX 240910
RWREAX

WEATHER ROUNDUP FOR EASTERN KANSAS AND NORTHWEST MISSOURI
NATIONAL WEATHER SERVICE KANSAS CITY/PLEASANT HILL MO
400 AM CDT WED AUG 24 2016

KSZ040-057-103>105-MOZ028-029-037-043-241000-
...KANSAS CITY METROPOLITAN AREA...

CITY           SKY/WX    TMP DP  RH WIND       PRES   REMARKS
K.C. INTL      LGT RAIN  73  72  96 N18G26    30.00R
K.C. DOWNTOWN  CLOUDY    77  71  82 N8        29.97R THUNDER
LEES SUMMIT    CLOUDY    77  70  79 SW17      29.96S
OLATHE - IXD   TSTM      76  71  85 S14       29.96R
OLATHE - OJC   CLOUDY    75  70  84 SW13      29.95S
LAWRENCE       CLOUDY    74  71  91 N10       29.96R

$$

MOZ001>008-011>017-020>025-030>033-038>040-044>046-053-054-241000-
...NORTHERN AND CENTRAL MISSOURI...

CITY           SKY/WX    TMP DP  RH WIND       PRES   REMARKS
ST. JOSEPH     LGT RAIN  67  65  93 SE7       29.99F
MOSBY          CLOUDY    72  68  88 NW6G21    29.99R
WHITEMAN AFB   PTCLDY    77  73  88 SW17G25   29.95F
CLINTON        PTCLDY    77  72  83 S13G20    29.99S
SEDALIA        PTCLDY    78  70  76 S13       30.00S
WARSAW         NOT AVBL
CHILLICOTHE      N/A     72  70  93 VRB3      29.99R
KIRKSVILLE     CLOUDY    77  70  79 SW12G24   29.95F

$$

MOZ041-047>049-056>058-063>065-088>090-097-241000-
...EASTERN AND SOUTHERN MISSOURI...

CITY           SKY/WX    TMP DP  RH WIND       PRES   REMARKS
ST. LOUIS INTL MOCLDY    76  72  87 S10       30.06S
SPIRIT OF STL  CLOUDY    76  73  91 VRB3      30.03F
COLUMBIA       CLOUDY    74  72  93 S10       30.01F
JEFFERSON CITY PTCLDY    76  71  85 S6        30.01S
ROLLA          PTCLDY    75  71  87 S12       30.05S
OSAGE BEACH    PTCLDY    76  71  85 S9        30.03S
SPRINGFIELD    CLEAR     75  69  81 S12       30.06R
BRANSON        PTCLDY    75  72  88 S5        30.10R
JOPLIN         PTCLDY    78  71  79 S14G22    30.03R
WEST PLAINS    PTCLDY    75  71  87 S6        30.13S

$$

IAZ060-094-KSZ022-034>040-054-083-096-NEZ052-066-093-241000-
...KANSAS...SOUTHEAST NEBRASKA AND IOWA...

CITY           SKY/WX    TMP DP  RH WIND       PRES   REMARKS
TOPEKA         MOCLDY    74  69  85 N20       29.98R
MANHATTAN      PTCLDY    74  71  91 CALM      29.93R
EMPORIA        PTCLDY    76  70  82 S14       29.94S
CHANUTE        CLOUDY    78  71  79 S12       29.98S
WICHITA        MOCLDY    76  69  79 S10       29.94S
OMAHA          CLOUDY    68  63  84 NE3       29.89S
LINCOLN        PTCLDY    67  63  87 S10       29.91F
FALLS CITY     CLOUDY    67  64  90 S14       29.92F
LAMONI         LGT RAIN  67  66  97 S16       29.88F
DES MOINES     CLOUDY    70  68  93 SW9       29.86R

$$





USA.gov is the U.S. government's official web portal to all federal, state and local government web resources and services.